📊 Raw Sensor Data
Showing records 46026 to 46050 of 85,063 total
| ID | Distance (ft) | Battery V | Battery A | Int Temp (°F) | Int Humid (%) | Ext Temp (°F) | Solar V | RSSI | SNR | Time Stamp |
|---|---|---|---|---|---|---|---|---|---|---|
| 39050 | -- | 3.97 | -5 | 49 | 42 | 51 | 0.00 | -75 | 8 | 04/28/2025 12:00 AM |
| 39049 | -- | 3.97 | -5 | 49 | 42 | 51 | 0.00 | -76 | 8 | 04/27/2025 11:45 PM |
| 39048 | -- | 3.97 | -5 | 49 | 42 | 51 | 0.00 | -77 | 8 | 04/27/2025 11:30 PM |
| 39047 | -- | 3.97 | -5 | 50 | 42 | 51 | 0.00 | -75 | 8 | 04/27/2025 11:15 PM |
| 39046 | -- | 3.97 | -5 | 49 | 42 | 52 | 0.00 | -76 | 8 | 04/27/2025 11:00 PM |
| 39045 | -- | 4.03 | -5 | 49 | 42 | 51 | 0.10 | -76 | 8 | 04/27/2025 10:45 PM |
| 39044 | -- | 3.97 | -5 | 49 | 43 | 51 | 0.00 | -76 | 8 | 04/27/2025 10:30 PM |
| 39043 | -- | 4.03 | -5 | 48 | 43 | 50 | 0.00 | -77 | 8 | 04/27/2025 10:16 PM |
| 39042 | -- | 4.03 | -5 | 48 | 45 | 49 | 0.10 | -76 | 8 | 04/27/2025 09:45 PM |
| 39041 | -- | 3.98 | -5 | 50 | 45 | 50 | 0.00 | -76 | 8 | 04/27/2025 09:30 PM |
| 39040 | -- | 3.98 | -5 | 51 | 45 | 53 | 0.00 | -77 | 8 | 04/27/2025 09:15 PM |
| 39039 | -- | 4.04 | -5 | 51 | 46 | 53 | 0.00 | -77 | 7 | 04/27/2025 09:00 PM |
| 39038 | -- | 3.98 | -5 | 52 | 47 | 53 | 0.00 | -76 | 8 | 04/27/2025 08:45 PM |
| 39037 | -- | 3.98 | -5 | 53 | 49 | 52 | 0.00 | -75 | 8 | 04/27/2025 08:30 PM |
| 39036 | -- | 3.98 | -5 | 55 | 50 | 54 | 0.10 | -75 | 9 | 04/27/2025 08:16 PM |
| 39035 | -- | 4.04 | -9 | 58 | 51 | 55 | 1.50 | -75 | 8 | 04/27/2025 08:00 PM |
| 39034 | -- | 3.99 | -5 | 63 | 50 | 57 | 4.50 | -75 | 8 | 04/27/2025 07:46 PM |
| 39033 | -- | 4.07 | 0 | 69 | 46 | 62 | 4.50 | -75 | 8 | 04/27/2025 07:30 PM |
| 39032 | 15.2 | 4.08 | 9 | 72 | 45 | 64 | 4.50 | -76 | 7 | 04/27/2025 07:15 PM |
| 39031 | -- | 4.11 | 5 | 73 | 43 | 66 | 4.50 | -75 | 9 | 04/27/2025 07:01 PM |
| 39030 | -- | 4.07 | 17 | 74 | 42 | 68 | 4.50 | -75 | 8 | 04/27/2025 06:46 PM |
| 39029 | 15.3 | 4.03 | 0 | 73 | 40 | 66 | 5.10 | -75 | 7 | 04/27/2025 06:30 PM |
| 39028 | 15.2 | 4.04 | 0 | 66 | 44 | 64 | 5.10 | -75 | 8 | 04/27/2025 06:15 PM |
| 39027 | 15.2 | 4.09 | 34 | 65 | 45 | 62 | 4.50 | -75 | 8 | 04/27/2025 06:00 PM |
| 39026 | -- | 4.11 | 33 | 66 | 45 | 63 | 4.50 | -75 | 8 | 04/27/2025 05:45 PM |